Theta_e
307 307 307 307 307 307 307 306 307 307 307 307 306 306 306 306 306 305 305 305 305 305 305 305 305 305 305 305 305 304 304 304 304 304 304 304 304 304 305 306 306 306
306 306 306 307 306 306 307 308 307 306 306 307 307 307 307 307 306 305 304 304 305 305 305 305 305 305 304 304 303 303 303 303 303 303 302 303 303 303 303 304 304 305
306 306 305 305 305 306 306 307 307 306 306 307 307 307 307 307 306 305 305 304 304 304 304 304 304 303 303 303 303 302 302 302 302 302 301 302 302 302 302 303 302 303
305 306 305 305 306 306 306 306 306 306 306 306 306 306 306 306 305 304 304 302 303 303 304 303 303 303 303 302 302 301 302 302 302 302 300 301 301 301 302 302 301 301
305 305 305 305 306 306 306 305 305 305 305 305 306 306 305 304 304 303 303 302 302 303 303 302 302 302 302 301 301 301 301 301 301 301 300 300 300 300 301 301 300 300
305 305 305 305 305 305 304 304 304 304 304 304 305 305 304 304 303 303 302 302 301 302 302 301 301 301 301 300 300 300 300 300 300 300 299 299 300 299 299 299 299 299
304 304 304 305 304 304 304 304 304 304 304 305 305 304 304 303 303 303 302 302 301 301 301 300 300 300 300 300 299 299 300 300 300 299 298 299 299 299 298 298 298 298
304 304 304 304 304 304 303 303 303 303 304 304 304 304 304 303 302 303 302 302 301 300 300 300 300 299 299 299 298 298 299 299 299 298 297 298 298 298 297 296 297 297
303 303 304 303 303 303 303 303 303 303 304 303 303 303 303 303 302 302 302 301 300 300 300 299 299 299 299 298 298 298 298 298 298 298 297 297 296 297 297 296 295 295
302 303 303 303 302 303 303 303 303 303 304 303 303 303 302 302 302 302 301 300 300 299 299 299 299 299 298 298 298 298 298 298 297 297 297 297 297 296 296 295 294 294
302 302 302 302 302 303 303 303 303 303 303 302 303 302 302 302 301 301 300 300 299 299 299 299 299 298 298 297 297 298 298 298 297 296 296 296 296 297 295 296 295 294
301 302 301 302 302 302 303 303 303 303 303 303 302 302 302 301 301 300 300 299 299 299 299 299 299 298 298 297 297 297 297 297 297 296 296 295 296 296 296 296 295 294
301 301 302 302 302 302 303 303 303 303 302 302 302 302 301 301 300 300 299 299 299 299 299 299 298 298 297 297 297 296 296 296 296 295 295 295 295 295 295 295 295 294
301 301 301 302 302 302 302 302 302 302 302 302 301 300 300 300 300 299 299 299 299 299 299 299 298 297 297 296 296 295 295 294 294 294 294 294 293 293 294 294 294 293
301 301 301 301 301 301 301 301 301 301 301 301 300 300 300 300 300 299 299 298 297 298 297 297 297 296 296 295 295 294 294 293 293 293 293 293 293 293 293 293 293 293
301 301 300 300 300 300 300 300 300 300 300 300 300 300 299 299 299 299 298 297 296 296 296 296 295 296 293 291 292 294 294 294 293 293 293 293 292 292 292 292 292 292
300 299 299 299 299 299 299 299 299 299 299 298 298 298 298 298 298 298 297 297 297 296 295 295 295 294 291 292 292 291 293 293 293 293 293 292 292 292 291 291 291 291
298 298 297 297 298 298 298 298 298 298 297 297 297 297 297 297 297 296 296 296 296 296 295 295 294 291 291 291 292 292 291 292 293 292 292 292 292 291 291 291 291 290
297 296 296 296 297 297 297 297 296 296 296 296 296 297 296 295 296 296 295 296 295 295 294 294 294 292 291 291 291 291 291 290 292 292 292 291 291 291 291 291 291 290
295 295 295 296 296 296 295 295 295 295 296 296 296 296 295 295 295 295 295 295 294 294 294 294 294 291 291 291 290 291 291 291 291 291 291 291 291 290 290 290 290 289
294 294 294 294 295 294 294 294 294 294 294 295 295 294 294 293 294 293 293 293 293 293 293 292 293 291 291 291 291 291 291 291 290 290 290 289 289 289 289 289 289 289
293 293 293 294 294 294 293 293 293 293 293 293 293 293 293 293 294 293 293 292 293 292 292 291 292 290 290 290 290 291 291 290 290 290 290 289 289 289 288 288 288 288
293 293 293 293 293 293 293 293 293 292 293 293 292 293 293 292 292 292 293 292 292 291 291 291 291 290 289 289 290 290 290 290 290 290 290 289 289 288 287 287 287 287
293 293 292 292 292 292 292 292 292 292 292 292 292 292 291 292 291 291 291 291 290 290 290 290 290 289 288 289 289 290 289 290 290 289 289 289 289 288 287 287 286 285
292 292 292 291 291 291 291 291 291 291 291 291 290 290 290 291 290 290 290 290 289 289 287 288 289 288 288 288 289 289 289 289 289 289 288 288 288 287 287 286 286 285
290 290 290 290 290 290 290 290 291 290 290 289 289 290 289 290 289 289 288 289 289 288 288 288 288 289 288 288 288 289 289 288 288 287 286 286 287 286 286 285 285 284
Wind_Speed
11 10 10 10 11 10 10 10 9 10 9 8 9 9 10 10 10 11 12 10 11 11 10 10 9 9 8 8 8 8 8 9 8 8 8 8 9 10 9 11 11 10
13 11 9 9 9 8 8 9 8 9 9 9 9 8 8 8 9 9 10 11 11 11 10 9 9 9 9 8 8 8 8 7 9 5 7 9 8 8 10 10 10 9
11 11 12 12 11 11 10 8 9 9 9 9 8 7 6 6 8 9 9 10 10 10 9 9 9 9 8 8 8 8 8 8 9 7 8 9 8 8 8 8 8 10
12 12 11 11 11 10 9 8 8 8 8 7 9 8 6 6 7 8 8 9 8 8 8 9 9 8 9 9 8 8 9 8 8 7 8 7 7 8 8 7 8 8
12 12 11 10 10 10 8 9 9 9 9 9 7 7 7 7 7 8 8 9 9 9 8 9 9 9 8 8 9 8 8 8 8 8 8 9 8 8 8 8 9 10
10 10 11 11 11 10 10 10 10 10 10 9 10 8 8 9 9 9 10 10 9 9 9 9 9 10 9 9 9 10 9 9 9 11 11 11 10 9 7 9 10 11
12 11 12 11 11 11 11 10 10 10 10 10 8 9 8 9 10 10 10 10 11 11 11 11 11 11 10 10 10 11 11 11 10 11 12 11 10 11 9 10 11 11
13 11 11 11 12 12 12 11 11 11 11 10 10 9 9 10 10 9 10 11 11 11 11 12 12 12 11 11 11 11 12 8 10 11 12 12 10 11 10 8 9 10
11 11 11 12 13 12 13 13 12 12 10 11 10 9 9 10 10 10 10 10 10 10 10 10 11 11 10 11 11 12 12 11 10 11 12 11 11 11 10 9 9 9
12 11 12 13 14 13 14 14 13 12 11 12 12 10 10 9 10 10 9 10 10 10 11 10 11 11 11 11 13 13 12 12 11 11 11 11 12 11 11 10 12 10
12 12 12 13 14 11 14 14 14 13 11 13 12 12 12 10 10 10 11 12 11 13 13 13 14 13 13 12 11 11 11 11 11 11 11 12 12 11 11 10 11 11
11 11 12 13 12 11 12 11 10 10 10 9 11 12 12 12 12 11 12 13 13 13 13 12 11 11 11 11 11 10 10 10 9 10 11 11 11 11 11 11 11 12
10 10 9 10 10 9 7 7 8 8 8 8 6 9 8 8 9 10 8 9 10 9 9 9 8 8 8 9 8 9 9 9 9 10 9 9 9 10 9 9 10 10
10 10 10 10 8 8 9 9 9 9 9 8 7 8 9 7 7 7 6 6 7 7 7 7 7 8 9 9 8 9 9 9 9 9 9 9 8 9 9 9 10 10
9 8 8 9 9 9 10 11 10 10 10 10 10 10 8 9 9 9 9 9 9 9 10 9 9 10 8 9 9 10 9 10 10 10 9 9 9 10 10 11 10 11
6 6 6 7 8 8 9 8 8 9 9 9 11 11 11 11 11 11 12 13 12 12 11 9 9 8 12 16 13 9 10 9 9 10 11 10 10 10 10 11 11 10
6 6 5 7 7 7 7 7 8 7 7 8 8 7 8 8 9 11 11 10 11 10 10 9 8 8 15 16 15 15 11 10 10 10 10 10 10 10 10 10 10 11
6 7 7 8 7 8 8 7 7 7 8 8 8 9 8 7 9 9 8 8 8 9 10 9 9 12 16 19 16 15 17 11 10 10 10 11 11 12 11 11 11 11
5 6 7 7 8 7 7 7 8 8 9 8 10 9 7 9 10 9 10 10 10 11 11 11 10 14 18 19 16 16 18 17 10 11 11 11 11 12 12 11 10 10
5 5 6 6 5 5 5 6 7 9 8 7 6 6 8 9 9 10 9 9 9 10 9 9 9 10 15 15 18 17 15 15 10 10 10 11 11 11 10 12 12 10
4 5 6 6 5 6 6 7 8 7 7 7 7 8 8 8 8 9 8 7 8 8 8 8 7 9 12 13 12 14 14 15 10 9 9 10 10 10 11 11 11 11
4 5 6 5 6 6 7 8 8 8 7 6 6 6 6 6 7 7 7 8 9 8 8 10 7 9 11 13 12 13 15 11 10 11 11 11 11 11 11 11 11 11
4 5 5 5 6 6 7 7 6 6 6 5 6 7 7 7 7 7 6 7 8 8 9 8 6 8 12 13 13 14 11 10 10 9 10 11 11 10 10 10 10 11
4 5 5 5 5 6 6 5 4 4 4 4 5 6 6 6 5 5 5 6 7 8 7 7 8 7 12 13 13 14 13 10 9 9 10 10 10 10 8 8 10 11
4 3 4 4 5 5 4 5 4 4 3 3 4 5 5 4 4 5 5 5 5 7 6 8 8 6 10 12 13 15 13 10 9 8 9 9 8 9 8 7 8 10
2 2 3 3 4 4 3 3 3 3 3 4 4 4 5 5 5 5 6 5 5 6 6 7 8 7 6 10 12 13 16 10 8 8 10 9 7 7 7 7 8 7
Wind_Direction
208 207 205 203 207 208 199 194 196 194 195 195 197 198 197 199 186 187 194 195 198 199 200 199 196 199 197 195 196 204 207 209 212 211 208 208 218 215 220 219 218 225
211 210 209 209 213 211 212 198 197 196 200 200 205 199 195 186 183 183 190 197 199 203 200 198 197 198 194 196 193 201 209 207 210 198 206 209 219 214 222 220 221 224
215 213 212 211 212 212 208 203 203 205 208 208 204 202 194 177 177 189 195 196 198 202 202 199 197 196 195 198 193 202 210 207 210 198 207 215 217 219 219 215 220 218
219 220 218 219 220 220 209 207 204 208 210 209 208 206 192 178 189 186 194 196 200 201 201 197 198 196 197 198 193 204 210 213 211 199 202 215 218 219 219 209 213 215
215 217 219 221 223 224 217 210 209 210 210 214 209 197 198 186 185 188 191 191 198 199 196 195 197 200 195 197 195 205 206 211 204 200 205 213 214 207 212 204 208 214
216 216 217 219 219 219 222 219 216 216 216 213 214 202 200 189 192 193 190 189 192 194 192 193 194 198 194 197 195 206 203 205 203 196 206 212 210 202 198 204 209 212
211 210 216 217 220 220 222 220 216 218 220 220 213 212 191 194 195 195 192 192 189 192 192 191 193 194 193 195 199 204 206 206 200 194 205 211 210 205 198 204 212 215
209 207 207 210 214 217 219 218 216 217 218 214 216 215 197 203 201 198 197 194 194 194 193 194 195 195 192 195 200 202 206 200 201 199 206 212 208 212 200 201 208 220
209 208 203 203 207 213 215 214 215 217 212 212 215 213 202 204 203 201 199 198 199 197 197 199 198 198 197 198 203 203 205 202 203 202 205 208 208 213 206 197 208 219
210 210 208 206 208 210 212 210 210 211 206 210 211 206 205 202 204 206 199 198 201 199 200 200 200 201 200 203 206 204 206 206 201 204 207 210 211 210 203 198 207 213
215 212 213 212 214 212 214 210 209 207 204 205 202 205 204 196 199 199 199 199 201 201 200 202 201 199 202 203 205 205 206 205 201 203 208 212 214 213 209 203 206 213
222 218 219 218 219 222 222 219 218 218 218 212 206 207 202 201 199 196 199 204 204 206 204 205 202 202 204 205 203 203 207 210 208 207 210 212 214 216 211 207 209 212
228 230 228 227 226 227 227 226 225 228 232 233 229 230 226 218 213 208 207 212 214 213 212 210 205 206 210 212 208 205 208 211 213 214 214 216 219 218 215 214 214 216
226 224 225 225 224 221 221 220 219 217 219 223 220 223 230 231 221 221 221 215 227 219 218 213 209 210 214 212 209 205 206 211 212 213 215 217 217 218 218 218 218 217
226 222 220 217 217 220 221 220 216 216 212 209 209 212 210 214 213 208 212 211 212 212 209 204 205 209 200 198 199 204 202 207 208 211 212 215 216 218 219 220 221 221
238 240 238 239 234 229 228 225 221 218 215 214 214 210 207 207 205 205 208 210 205 208 207 202 209 209 211 207 204 201 200 202 206 212 213 216 216 219 220 220 222 223
235 241 233 235 237 236 232 224 225 219 220 222 222 218 217 214 209 214 213 212 211 207 208 210 214 217 215 211 207 208 208 208 208 211 210 214 216 217 221 217 218 219
228 224 222 228 224 229 230 228 228 225 224 221 217 216 215 211 217 221 220 215 214 214 216 216 218 216 211 213 201 197 206 212 209 207 204 209 212 214 217 216 213 212
234 232 231 227 222 219 217 214 219 223 224 218 217 215 205 208 216 212 215 214 210 215 219 218 222 212 211 208 197 196 202 208 217 210 208 210 210 211 214 214 213 212
244 241 243 239 230 224 223 224 225 226 225 221 219 213 216 224 221 221 221 217 215 219 227 230 231 218 212 207 213 211 200 201 223 216 215 218 214 211 212 214 214 213
240 237 240 237 230 223 221 226 226 228 220 218 214 216 215 218 218 219 222 218 220 222 231 236 234 221 211 206 204 207 205 207 225 225 223 222 221 217 215 214 214 216
241 243 240 236 231 225 226 228 223 222 220 213 213 223 225 224 229 224 223 221 223 222 226 239 240 213 217 216 210 212 212 220 225 229 229 227 224 220 218 219 217 216
251 250 250 245 239 237 239 236 231 227 224 212 217 225 225 222 225 226 224 226 224 220 227 240 245 211 213 218 215 211 208 226 229 234 236 233 232 225 220 219 215 214
268 261 263 260 251 251 253 250 239 241 234 215 224 232 234 233 228 232 229 225 226 228 223 235 243 213 206 217 218 210 214 224 231 232 236 236 237 230 223 221 217 208
290 275 269 267 264 259 258 259 249 240 228 208 221 228 243 243 233 241 243 235 229 237 222 230 246 226 201 214 212 216 216 228 232 238 239 237 236 238 231 224 226 212
329 299 283 279 278 278 275 263 265 250 236 229 227 225 221 219 214 221 232 237 228 225 233 230 240 245 210 206 217 219 218 224 232 236 241 243 237 240 239 228 218 215